When you browse on this site, cookies collect data to enhance your experience and personalize the content and advertising you see.
Visit our Privacy Policy to learn more. By continuing to use the site, you agree to this use of cookies and data.
  • In Switzerland
  • List of Countries
  • For 7 days
  • Water Temperature
  • Weather Map
  • Weather Widgets
  • user-avatar
    Login

    Hourly Weather Barinas

    Today, 24 August, Saturday

    Time Temperature Precipitation Wind Pressure Humidity
    00:00 +25°C° 0 mm 1 mps 744 mmHg 93%
    01:00 +25°C° 0 mm 1 mps 744 mmHg 94%
    02:00 +24°C° 0 mm 1 mps 744 mmHg 94%
    03:00 +24°C° 0 mm 1 mps 744 mmHg 93%
    04:00 +24°C° 0 mm 1 mps 744 mmHg 93%
    05:00 +24°C° 0 mm 1 mps 744 mmHg 91%
    06:00 +23°C° 0 mm 0 mps 744 mmHg 90%
    07:00 +24°C° 0 mm 0 mps 745 mmHg 88%
    08:00 +27°C° 0.1 mm 1 mps 745 mmHg 81%
    09:00 +29°C° 0.1 mm 2 mps 745 mmHg 75%
    10:00 +31°C° 0.1 mm 2 mps 745 mmHg 68%
    11:00 +31°C° 1.3 mm 2 mps 744 mmHg 72%
    12:00 +31°C° 1.3 mm 2 mps 744 mmHg 75%
    13:00 +31°C° 1.3 mm 2 mps 743 mmHg 78%
    14:00 +30°C° 1.4 mm 2 mps 743 mmHg 83%
    15:00 +28°C° 1.4 mm 1 mps 742 mmHg 87%
    16:00 +27°C° 1.4 mm 1 mps 742 mmHg 91%
    17:00 +27°C° 0.3 mm 1 mps 742 mmHg 91%
    18:00 +26°C° 0.3 mm 1 mps 743 mmHg 90%
    19:00 +25°C° 0.3 mm 1 mps 743 mmHg 90%
    20:00 +25°C° 0.1 mm 1 mps 744 mmHg 91%
    21:00 +25°C° 0.1 mm 1 mps 744 mmHg 91%
    22:00 +25°C° 0.1 mm 1 mps 745 mmHg 91%
    23:00 +25°C° 0 mm 1 mps 744 mmHg 91%

    Tomorrow, 25 August, Sunday

    Time Temperature Precipitation Wind Pressure Humidity
    00:00 +24°C° 0 mm 1 mps 744 mmHg 90%
    01:00 +24°C° 0 mm 1 mps 743 mmHg 90%
    02:00 +22°C° 0 mm 0 mps 743 mmHg 90%
    03:00 +22°C° 0 mm 0 mps 743 mmHg 90%
    04:00 +22°C° 0 mm 0 mps 743 mmHg 90%
    05:00 +22°C° 0 mm 0 mps 743 mmHg 89%
    06:00 +25°C° 0 mm 1 mps 744 mmHg 88%
    07:00 +25°C° 0 mm 1 mps 744 mmHg 87%
    08:00 +26°C° 0 mm 1 mps 744 mmHg 84%
    09:00 +27°C° 0 mm 1 mps 744 mmHg 81%
    10:00 +28°C° 0 mm 1 mps 745 mmHg 78%
    11:00 +29°C° 0.1 mm 1 mps 744 mmHg 74%
    12:00 +30°C° 0.1 mm 1 mps 743 mmHg 69%
    13:00 +32°C° 0.1 mm 1 mps 743 mmHg 65%
    14:00 +31°C° 0.8 mm 1 mps 742 mmHg 68%
    15:00 +31°C° 0.8 mm 1 mps 742 mmHg 72%
    16:00 +31°C° 0.8 mm 1 mps 741 mmHg 75%
    17:00 +29°C° 1.6 mm 1 mps 742 mmHg 80%
    18:00 +28°C° 1.6 mm 1 mps 742 mmHg 85%
    19:00 +26°C° 1.6 mm 1 mps 742 mmHg 89%
    20:00 +26°C° 1.4 mm 1 mps 743 mmHg 90%
    21:00 +26°C° 1.4 mm 1 mps 743 mmHg 91%
    22:00 +25°C° 1.4 mm 1 mps 744 mmHg 92%
    23:00 +25°C° 1.2 mm 1 mps 744 mmHg 93%

    Day after tomorrow, 26 August, Monday

    Time Temperature Precipitation Wind Pressure Humidity
    00:00 +25°C° 1.2 mm 1 mps 743 mmHg 93%
    01:00 +24°C° 1.2 mm 1 mps 743 mmHg 94%
    02:00 +24°C° 1.7 mm 1 mps 743 mmHg 94%
    03:00 +24°C° 1.7 mm 1 mps 743 mmHg 94%
    04:00 +24°C° 1.7 mm 1 mps 743 mmHg 95%
    05:00 +24°C° 1.4 mm 1 mps 743 mmHg 94%
    06:00 +23°C° 1.4 mm 0 mps 744 mmHg 93%
    07:00 +23°C° 1.4 mm 0 mps 744 mmHg 92%
    08:00 +24°C° 1.3 mm 0 mps 745 mmHg 89%
    09:00 +25°C° 1.3 mm 0 mps 745 mmHg 86%
    10:00 +26°C° 1.3 mm 0 mps 745 mmHg 83%
    11:00 +26°C° 0.6 mm 0 mps 744 mmHg 82%
    12:00 +26°C° 0.6 mm 0 mps 743 mmHg 82%
    13:00 +26°C° 0.6 mm 0 mps 743 mmHg 81%
    14:00 +27°C° 0 mm 0 mps 742 mmHg 78%
    15:00 +27°C° 0 mm 0 mps 742 mmHg 75%
    16:00 +28°C° 0 mm 0 mps 741 mmHg 71%
    17:00 +26°C° 0 mm 0 mps 742 mmHg 76%
    18:00 +25°C° 0 mm 0 mps 742 mmHg 82%
    19:00 +24°C° 0 mm 0 mps 743 mmHg 87%
    20:00 +23°C° 0.1 mm 0 mps 743 mmHg 87%
    21:00 +25°C° 0.1 mm 1 mps 743 mmHg 88%
    22:00 +25°C° 0.1 mm 1 mps 744 mmHg 89%
    23:00 +25°C° 0 mm 1 mps 744 mmHg 88%

    27 August, Tuesday

    Time Temperature Precipitation Wind Pressure Humidity
    00:00 +25°C° 0 mm 1 mps 743 mmHg 88%
    01:00 +23°C° 0 mm 0 mps 743 mmHg 87%
    02:00 +24°C° 0.1 mm 1 mps 743 mmHg 87%
    03:00 +24°C° 0.1 mm 1 mps 743 mmHg 87%
    04:00 +24°C° 0.1 mm 1 mps 743 mmHg 87%
    05:00 +24°C° 0 mm 1 mps 744 mmHg 86%
    06:00 +25°C° 0 mm 1 mps 744 mmHg 86%
    07:00 +25°C° 0 mm 1 mps 744 mmHg 85%
    08:00 +27°C° 0 mm 1 mps 745 mmHg 83%
    09:00 +28°C° 0 mm 1 mps 745 mmHg 80%
    10:00 +29°C° 0 mm 1 mps 745 mmHg 77%
    11:00 +30°C° 0.4 mm 2 mps 744 mmHg 73%
    12:00 +31°C° 0.4 mm 2 mps 743 mmHg 68%
    13:00 +32°C° 0.4 mm 2 mps 742 mmHg 64%
    14:00 +31°C° 0.4 mm 2 mps 742 mmHg 68%
    15:00 +31°C° 0.4 mm 2 mps 741 mmHg 73%
    16:00 +30°C° 0.4 mm 1 mps 741 mmHg 77%
    17:00 +29°C° 0.5 mm 1 mps 741 mmHg 82%
    18:00 +27°C° 0.5 mm 1 mps 742 mmHg 86%
    19:00 +26°C° 0.5 mm 1 mps 742 mmHg 91%
    20:00 +26°C° 0.2 mm 1 mps 743 mmHg 92%
    21:00 +25°C° 0.2 mm 1 mps 743 mmHg 93%
    22:00 +25°C° 0.2 mm 1 mps 744 mmHg 93%
    23:00 +25°C° 0 mm 1 mps 743 mmHg 93%

    28 August, Wednesday

    Time Temperature Precipitation Wind Pressure Humidity
    00:00 +25°C° 0 mm 1 mps 743 mmHg 93%
    01:00 +22°C° 0 mm 0 mps 743 mmHg 93%
    02:00 +22°C° 0 mm 0 mps 743 mmHg 93%
    03:00 +24°C° 0 mm 1 mps 743 mmHg 93%
    04:00 +24°C° 0 mm 1 mps 743 mmHg 92%
    05:00 +25°C° 0.1 mm 1 mps 743 mmHg 91%
    06:00 +25°C° 0.1 mm 1 mps 744 mmHg 89%
    07:00 +26°C° 0.1 mm 1 mps 744 mmHg 87%
    08:00 +28°C° 0 mm 1 mps 744 mmHg 80%
    09:00 +30°C° 0 mm 1 mps 744 mmHg 74%
    10:00 +31°C° 0 mm 2 mps 744 mmHg 67%
    11:00 +32°C° 0.2 mm 2 mps 744 mmHg 67%
    12:00 +32°C° 0.2 mm 2 mps 743 mmHg 66%
    13:00 +34°C° 0.2 mm 2 mps 742 mmHg 66%
    14:00 +32°C° 1.4 mm 2 mps 741 mmHg 71%
    15:00 +31°C° 1.4 mm 2 mps 741 mmHg 75%
    16:00 +31°C° 1.4 mm 2 mps 741 mmHg 80%
    17:00 +29°C° 1.7 mm 1 mps 741 mmHg 83%
    18:00 +28°C° 1.7 mm 1 mps 742 mmHg 86%
    19:00 +27°C° 1.7 mm 1 mps 742 mmHg 89%
    20:00 +26°C° 0.8 mm 1 mps 742 mmHg 90%
    21:00 +26°C° 0.8 mm 1 mps 743 mmHg 91%
    22:00 +25°C° 0.8 mm 1 mps 743 mmHg 92%
    23:00 +25°C° 0 mm 1 mps 743 mmHg 92%

    29 August, Thursday

    Time Temperature Precipitation Wind Pressure Humidity
    00:00 +25°C° 0 mm 1 mps 742 mmHg 91%
    01:00 +23°C° 0 mm 0 mps 742 mmHg 90%
    02:00 +22°C° 0.4 mm 0 mps 742 mmHg 91%
    03:00 +24°C° 0.4 mm 1 mps 742 mmHg 91%
    04:00 +24°C° 0.4 mm 1 mps 742 mmHg 92%
    05:00 +25°C° 0 mm 1 mps 742 mmHg 90%
    06:00 +25°C° 0 mm 1 mps 743 mmHg 88%
    07:00 +26°C° 0 mm 1 mps 743 mmHg 86%
    08:00 +28°C° 0 mm 1 mps 743 mmHg 79%
    09:00 +30°C° 0 mm 1 mps 744 mmHg 72%
    10:00 +32°C° 0 mm 2 mps 744 mmHg 65%
    11:00 +32°C° 0.1 mm 2 mps 743 mmHg 64%
    12:00 +34°C° 0.1 mm 3 mps 742 mmHg 63%
    13:00 +34°C° 0.1 mm 3 mps 741 mmHg 62%
    14:00 +34°C° 0.8 mm 3 mps 741 mmHg 66%
    15:00 +32°C° 0.8 mm 2 mps 741 mmHg 70%
    16:00 +32°C° 0.8 mm 2 mps 740 mmHg 74%
    17:00 +30°C° 0.9 mm 1 mps 741 mmHg 79%
    18:00 +28°C° 0.9 mm 1 mps 741 mmHg 84%
    19:00 +27°C° 0.9 mm 1 mps 742 mmHg 88%
    20:00 +26°C° 2.5 mm 1 mps 742 mmHg 90%
    21:00 +26°C° 2.5 mm 1 mps 743 mmHg 92%
    22:00 +25°C° 2.5 mm 1 mps 743 mmHg 93%
    23:00 +25°C° 0.9 mm 1 mps 743 mmHg 94%
    Show more